Location: Il Ritiro
(43.4167°N, 13.1333°E)
Time: 07:23:50
(UTC+00:00)

Cosmos 1606 - Pass Details

Date: 05 July 2020
Orbit: 505 x 527 km, 82.5° (Epoch: 06 August)

Event Time Altitude Azimuth Distance (km) Brightness Sun altitude
Rises 22:46:32 0° 348° (NNW) 2,663 7.8 -23.7°
Reaches altitude 10° 22:48:42 10° 346° (NNW) 1,772 6.5 -23.7°
Enters shadow 22:52:09 60° 301° (WNW) 607 3.1 -23.8°
